Simultaneous Nadir Overpasses (SNOs) Predictions

Prediction of SNOs between GOES-16 and NOAA-19 Satellite Orbit:

Table of predicted SNOs for the next 14.0 days since TLE Epoch: 3/25/2023
Index Date Time (GOES-16) GOES-16 Lat,Lon NOAA-19 Lat,Lon Distance(km) Time Diff (sec)
1 03/26/2023 13:36:22 0.04, -75.20 0.54, -77.28 238.06 80
2 03/27/2023 13:21:43 0.04, -75.20 -0.17, -74.37 95.37 80
3 03/28/2023 13:09:44 0.04, -75.21 -0.82, -71.45 428.90 80
4 03/30/2023 01:44:46 -0.04, -75.21 -0.99, -79.20 456.84 80
5 03/31/2023 01:32:48 -0.04, -75.21 -0.27, -76.29 122.92 80
6 04/01/2023 01:18:08 -0.04, -75.22 0.39, -73.37 211.25 80
7 04/03/2023 13:40:52 0.04, -75.26 0.72, -78.13 328.42 80
8 04/04/2023 13:28:53 0.04, -75.27 0.05, -75.21 7.11 80
9 04/05/2023 13:14:14 0.04, -75.29 -0.68, -72.30 341.62 80
